Las Vegas, NV

7:47 AM PDT on May 26, 2017 (GMT -0700)
McCarran International

Weather History for KLAS - April, 2014

Change the Weather History Date:

Thursday, April 17, 2014

  Actual Average Record
Temperature  
Mean Temperature 77 °F 68 °F  
Max Temperature 91 °F 79 °F 97 °F (1989)
Min Temperature 62 °F 56 °F 40 °F (1976)
Degree Days  
Heating Degree Days 0 2  
Month to date heating degree days 35 48  
Since 1 July heating degree days 1506 1928  
Cooling Degree Days 12 4  
Month to date cooling degree days 108 51  
Year to date cooling degree days 142 82  
Growing Degree Days 26 (Base 50)    
Moisture  
Dew Point 22 °F    
Average Humidity 16    
Maximum Humidity 24    
Minimum Humidity 8    
Precipitation  
Precipitation 0.00 in 0.01 in 0.01 in (1970)
Month to date precipitation T 0.11  
Year to date precipitation 0.30 1.85  
Snow  
Snow 0.00 in 0.00 in 0.00 in ()
Month to date snowfall 0.0 0.0  
Since 1 July snowfall 0.0 0.3  
Snow Depth 0.00 in    
Sea Level Pressure  
Sea Level Pressure 29.74 in    
Wind  
Wind Speed 8 mph (South)    
Max Wind Speed 24 mph    
Max Gust Speed 33 mph    
Visibility 10 miles    
Events      
T = Trace of Precipitation, MM = Missing Value Source: NWS Daily Summary

Daily Weather History Graph

Daily Weather History Graph

Search for Another Location

Airport or City:

Trip Planner

Search our weather history database for the weather conditions in past years. The results will help you decide how hot, cold, wet, or windy it might be!

Date:

Astronomy

Apr. 17, 2014 Rise Set
Actual Time 6:04 AM PDT 7:16 PM PDT
Civil Twilight 5:38 AM PDT 7:42 PM PDT
Nautical Twilight 5:06 AM PDT 8:14 PM PDT
Astronomical Twilight 4:33 AM PDT 8:47 PM PDT
Moon 10:02 PM PDT (4/17) 7:43 AM PDT (4/17)
Length of Visible Light 14h 04m
Length of Day
13h 11m
Waning Gibbous, 93% of the Moon is Illuminated
Apr 17
Waning Gibbous
Apr 22
Last Quarter
Apr 28
New
May 6
First Quarter
May 14
Full

Hourly Weather History & Observations

Time (PDT) Temp. Dew Point Humidity Pressure Visibility Wind Dir Wind Speed Gust Speed Precip Events Conditions
12:56 AM 69.1 °F 21.0 °F 16% 29.71 in 10.0 mi SW 10.4 mph - N/A   Partly Cloudy
1:56 AM 71.1 °F 21.9 °F 16% 29.72 in 10.0 mi NNE 8.1 mph - N/A   Partly Cloudy
2:56 AM 69.1 °F 24.1 °F 18% 29.72 in 10.0 mi Calm Calm - N/A   Partly Cloudy
3:56 AM 66.9 °F 25.0 °F 21% 29.74 in 10.0 mi SSW 9.2 mph - N/A   Partly Cloudy
4:56 AM 64.9 °F 26.1 °F 23% 29.75 in 10.0 mi SSW 3.5 mph - N/A   Partly Cloudy
5:56 AM 63.0 °F 25.0 °F 24% 29.77 in 10.0 mi South 10.4 mph - N/A   Partly Cloudy
6:56 AM 66.9 °F 25.0 °F 21% 29.79 in 10.0 mi SSW 4.6 mph - N/A   Clear
7:56 AM 70.0 °F 25.0 °F 18% 29.82 in 10.0 mi Calm Calm - N/A   Clear
8:56 AM 73.4 °F 24.8 °F 16% 29.89 in 10.0 mi South 5.8 mph - N/A   Clear
9:56 AM 75.2 °F 24.8 °F 15% 29.89 in 10.0 mi Calm Calm - N/A   Clear
10:56 AM 77.0 °F 23.0 °F 13% 29.82 in 10.0 mi SSE 5.8 mph - N/A   Partly Cloudy
11:56 AM 81.0 °F 24.1 °F 12% 29.81 in 10.0 mi Variable 4.6 mph - N/A   Partly Cloudy
12:56 PM 84.0 °F 23.0 °F 11% 29.78 in 10.0 mi Calm Calm - N/A   Partly Cloudy
1:56 PM 88.0 °F 23.0 °F 9% 29.74 in 10.0 mi Variable 4.6 mph - N/A   Scattered Clouds
2:56 PM 89.1 °F 23.0 °F 9% 29.71 in 10.0 mi Variable 6.9 mph - N/A   Scattered Clouds
3:56 PM 90.0 °F 21.0 °F 8% 29.67 in 10.0 mi South 11.5 mph 18.4 mph N/A   Mostly Cloudy
4:56 PM 90.0 °F 19.9 °F 8% 29.66 in 10.0 mi South 20.7 mph 29.9 mph N/A   Mostly Cloudy
5:56 PM 88.0 °F 19.0 °F 8% 29.66 in 10.0 mi South 17.3 mph 25.3 mph N/A   Mostly Cloudy
6:56 PM 84.9 °F 18.0 °F 8% 29.68 in 10.0 mi South 21.9 mph 32.2 mph N/A   Mostly Cloudy
7:56 PM 82.9 °F 19.9 °F 10% 29.69 in 10.0 mi South 15.0 mph 25.3 mph N/A   Overcast
8:56 PM 81.0 °F 18.0 °F 10% 29.71 in 10.0 mi South 13.8 mph 23.0 mph N/A   Overcast
9:56 PM 79.0 °F 19.9 °F 11% 29.71 in 10.0 mi South 15.0 mph - N/A   Overcast
10:56 PM 78.1 °F 21.0 °F 12% 29.71 in 10.0 mi South 11.5 mph - N/A   Overcast
11:56 PM 73.9 °F 23.0 °F 15% 29.71 in 10.0 mi SSE 5.8 mph - N/A   Overcast